Morristown, NJ

6:35 PM EDT on June 23, 2018 (GMT -0400)
Morristown Municipal

Weather History for KMMU - October, 2017

Change the Weather History Date:

Saturday, October 14, 2017

  Actual Average Record
Temperature  
Mean Temperature 64 °F -  
Max Temperature 69 °F 65 °F 87 °F (1954)
Min Temperature 59 °F 43 °F 23 °F (1934)
Degree Days  
Heating Degree Days 1    
Growing Degree Days 14 (Base 50)    
Moisture  
Dew Point 60 °F    
Average Humidity 94    
Maximum Humidity 100    
Minimum Humidity 78    
Precipitation  
Precipitation 0.02 in - - ()
Sea Level Pressure  
Sea Level Pressure 30.25 in    
Wind  
Wind Speed 0 mph (NNE)    
Max Wind Speed 6 mph    
Max Gust Speed -    
Visibility 6 miles    
Events Rain    
Averages and records for this station are not official NWS values.
T = Trace of Precipitation, MM = Missing Value Source: NWS Daily Summary

Daily Weather History Graph

Daily Weather History Graph

Search for Another Location

Airport or City:

Astronomy

Oct. 14, 2017 Rise Set
Actual Time 7:08 AM EDT 6:18 PM EDT
Civil Twilight 6:40 AM EDT 6:45 PM EDT
Nautical Twilight 6:08 AM EDT 7:17 PM EDT
Astronomical Twilight 5:36 AM EDT 7:49 PM EDT
Moon 1:29 AM EDT (10/14) 3:47 PM EDT (10/14)
Length of Visible Light 12h 05m
Length of Day
11h 10m
Waning Crescent, 27% of the Moon is Illuminated
Oct 14
Waning Crescent
Oct 19
New
Oct 27
First Quarter
Nov 4
Full
Nov 10
Last Quarter

Hourly Weather History & Observations

Time (EDT) Temp. Dew Point Humidity Pressure Visibility Wind Dir Wind Speed Gust Speed Precip Events Conditions
12:15 AM 59.0 °F 59.0 °F 100% 30.32 in 5.0 mi Calm Calm - N/A   Overcast
12:35 AM 59.0 °F 59.0 °F 100% 30.32 in 7.0 mi Calm Calm - N/A   Overcast
12:55 AM 59.0 °F 59.0 °F 100% 30.31 in 5.0 mi NNE 3.5 mph - N/A Rain Light Rain
1:15 AM 59.0 °F 59.0 °F 100% 30.31 in 7.0 mi Calm Calm - N/A   Overcast
1:35 AM 59.0 °F 59.0 °F 100% 30.31 in 4.0 mi Calm Calm - 0.01 in Rain Light Rain
1:55 AM 59.0 °F 59.0 °F 100% 30.30 in 5.0 mi Calm Calm - N/A Rain Light Rain
2:15 AM 59.0 °F 59.0 °F 100% 30.30 in 5.0 mi Calm Calm - N/A Rain Light Rain
2:35 AM 59.0 °F 59.0 °F 100% 30.29 in 7.0 mi Calm Calm - N/A Rain Light Rain
2:55 AM 59.0 °F 59.0 °F 100% 30.29 in 5.0 mi Calm Calm - N/A Rain Light Rain
3:15 AM 59.0 °F 59.0 °F 100% 30.28 in 7.0 mi Calm Calm - N/A   Overcast
3:35 AM 59.0 °F 59.0 °F 100% 30.27 in 7.0 mi Calm Calm - N/A   Overcast
3:55 AM 59.0 °F 59.0 °F 100% 30.27 in 5.0 mi Calm Calm - N/A Rain Light Rain
4:15 AM 59.0 °F 59.0 °F 100% 30.27 in 7.0 mi Calm Calm - N/A   Overcast
4:35 AM 59.0 °F 59.0 °F 100% 30.27 in 5.0 mi Calm Calm - N/A   Overcast
4:55 AM 59.0 °F 59.0 °F 100% 30.26 in 3.0 mi Calm Calm - N/A   Overcast
5:15 AM 59.0 °F 59.0 °F 100% 30.26 in 3.0 mi Calm Calm - N/A   Overcast
5:35 AM 59.0 °F 59.0 °F 100% 30.27 in 3.0 mi Calm Calm - 0.01 in   Overcast
5:55 AM 59.0 °F 59.0 °F 100% 30.27 in 2.0 mi Calm Calm - N/A   Overcast
6:15 AM 59.0 °F 59.0 °F 100% 30.27 in 2.0 mi Calm Calm - N/A Rain Rain
6:35 AM 59.0 °F 59.0 °F 100% 30.26 in 3.0 mi Calm Calm - N/A Rain Light Rain
6:45 AM 59.0 °F 59.0 °F 100% 30.27 in 3.0 mi Calm Calm - N/A Rain Light Rain
6:46 AM 59.0 °F 59.0 °F 100% 30.27 in 1.5 mi Calm Calm - N/A Rain Light Rain
7:45 AM 60.8 °F 59.0 °F 94% 30.27 in 2.0 mi Calm Calm - N/A   Overcast
8:30 AM 60.8 °F 60.8 °F 100% 30.27 in 1.0 mi Calm Calm - N/A   Overcast
8:50 AM 60.8 °F 60.8 °F 100% 30.27 in 1.8 mi NNE 4.6 mph - N/A   Overcast
9:45 AM 62.6 °F 60.8 °F 94% 30.27 in 2.0 mi ENE 5.8 mph - N/A   Overcast
10:45 AM 64.4 °F 62.6 °F 94% 30.26 in 5.0 mi Calm Calm - N/A   Overcast
11:50 AM 66.2 °F 62.6 °F 88% 30.26 in 5.0 mi Calm Calm - N/A   Overcast
12:30 PM 68.0 °F 62.6 °F 83% 30.24 in 7.0 mi Calm Calm - N/A   Overcast
12:45 PM 68.0 °F 62.6 °F 83% 30.23 in 7.0 mi North 4.6 mph - N/A   Overcast
1:45 PM 69.8 °F 62.6 °F 78% 30.20 in 7.0 mi Calm Calm - N/A   Overcast
2:45 PM 69.8 °F 62.6 °F 78% 30.19 in 7.0 mi Calm Calm - N/A   Overcast
3:50 PM 69.8 °F 62.6 °F 78% 30.17 in 7.0 mi Calm Calm - N/A   Overcast
4:45 PM 69.8 °F 62.6 °F 78% 30.17 in 7.0 mi Calm Calm - N/A   Overcast
5:45 PM 68.0 °F 62.6 °F 83% 30.17 in 7.0 mi Calm Calm - N/A   Overcast
6:45 PM 68.0 °F 60.8 °F 78% 30.18 in 7.0 mi North - - N/A   Overcast
7:45 PM 66.2 °F 60.8 °F 83% 30.19 in 10.0 mi Calm Calm - N/A   Overcast
8:59 PM 64.4 °F 60.8 °F 88% 30.19 in 10.0 mi Calm Calm - N/A   Overcast
9:59 PM 64.4 °F 62.6 °F 94% 30.19 in 10.0 mi Calm Calm - N/A   Overcast
10:35 PM 64.4 °F 62.6 °F 94% 30.18 in 10.0 mi Calm Calm - N/A   Overcast
10:55 PM 64.4 °F 62.6 °F 94% 30.18 in 10.0 mi Calm Calm - N/A   Overcast
11:15 PM 64.4 °F 62.6 °F 94% 30.18 in 10.0 mi Calm Calm - N/A   Overcast
11:35 PM 64.4 °F 62.6 °F 94% 30.18 in 10.0 mi Calm Calm - N/A   Overcast
11:55 PM 62.6 °F 62.6 °F 100% 30.17 in 10.0 mi Calm Calm - N/A   Overcast